TimeCST,TemperatureF,Dew PointF,Humidity,Sea Level PressureIn,VisibilityMPH,Wind Direction,Wind SpeedMPH,Gust SpeedMPH,PrecipitationIn,Events,Conditions,WindDirDegrees,DateUTC
12:55 AM,23.0,19.9,88,30.27,10.0,WSW,4.6,-,N/A,,Clear,250,2013-11-07 06:55:00
1:55 AM,25.0,21.9,88,30.26,10.0,WSW,6.9,-,N/A,,Clear,250,2013-11-07 07:55:00
2:55 AM,26.1,23.0,88,30.28,10.0,NW,12.7,-,N/A,,Clear,310,2013-11-07 08:55:00
3:55 AM,26.1,21.9,84,30.31,10.0,NW,11.5,-,N/A,,Clear,310,2013-11-07 09:55:00
4:55 AM,24.1,19.9,84,30.33,10.0,NW,9.2,-,N/A,,Clear,310,2013-11-07 10:55:00
5:55 AM,21.9,19.0,89,30.35,10.0,NW,8.1,-,N/A,,Clear,310,2013-11-07 11:55:00
6:55 AM,19.9,17.1,89,30.38,10.0,NW,8.1,-,N/A,,Clear,310,2013-11-07 12:55:00
7:55 AM,23.0,19.0,85,30.39,9.0,WNW,6.9,-,N/A,,Clear,290,2013-11-07 13:55:00
8:55 AM,28.9,24.1,82,30.39,9.0,West,9.2,-,N/A,,Clear,280,2013-11-07 14:55:00
9:55 AM,34.0,26.1,73,30.38,10.0,West,4.6,-,N/A,,Clear,260,2013-11-07 15:55:00
10:55 AM,39.9,25.0,55,30.38,10.0,West,3.5,-,N/A,,Clear,270,2013-11-07 16:55:00
11:55 AM,46.9,24.1,41,30.35,10.0,West,8.1,-,N/A,,Clear,280,2013-11-07 17:55:00
12:55 PM,48.9,26.1,41,30.32,10.0,West,9.2,-,N/A,,Clear,260,2013-11-07 18:55:00
1:55 PM,51.1,24.1,35,30.30,10.0,West,13.8,21.9,N/A,,Clear,280,2013-11-07 19:55:00
2:55 PM,50.0,25.0,38,30.28,10.0,West,10.4,-,N/A,,Clear,260,2013-11-07 20:55:00
3:55 PM,48.9,26.1,41,30.27,10.0,West,11.5,-,N/A,,Clear,260,2013-11-07 21:55:00
4:55 PM,44.1,28.0,53,30.27,10.0,WSW,8.1,-,N/A,,Clear,240,2013-11-07 22:55:00
5:55 PM,37.9,28.0,68,30.27,10.0,SW,6.9,-,N/A,,Clear,220,2013-11-07 23:55:00
6:55 PM,37.0,27.0,67,30.27,10.0,SW,8.1,-,N/A,,Clear,230,2013-11-08 00:55:00
7:55 PM,35.1,26.1,70,30.25,10.0,SW,6.9,-,N/A,,Clear,230,2013-11-08 01:55:00
8:55 PM,34.0,25.0,70,30.22,10.0,SSW,6.9,-,N/A,,Clear,210,2013-11-08 02:55:00
9:55 PM,32.0,25.0,75,30.20,10.0,South,5.8,-,N/A,,Clear,180,2013-11-08 03:55:00
10:55 PM,30.0,24.1,79,30.17,10.0,South,6.9,-,N/A,,Clear,170,2013-11-08 04:55:00
11:55 PM,30.0,24.1,79,30.14,10.0,SSE,6.9,-,N/A,,Clear,150,2013-11-08 05:55:00